Location: Bogis-Bossey
(46.3500°N, 6.1667°E)
Time: 17:04:04
(UTC+00:00)

Cosmos 1816 Rocket - Pass Details

Date: 17 August 2022
Orbit: 951 x 999 km, 82.9° (Epoch: 01 October)

Event Time Altitude Azimuth Distance (km) Brightness Sun altitude
Exits shadow 22:01:32 62° 117° (ESE) 1,091 4.4 -26.5°
Maximum altitude 22:01:59 64° 94° (E) 1,076 4.5 -26.6°
Drops below altitude 10° 22:08:13 10° 14° (NNE) 2,755 7.5 -27.0°
Sets 22:10:47 0° 12° (NNE) 3,713 8.3 -27.2°
